[[{"header":{"parameterUnit":"m.s-1","parameterCategory":1,"la1":30.2991,"la2":30.254,"lo1":-89.0895,"lo2":-89.0444,"dy":0.0017,"dx":0.0017,"nx":28,"ny":28,"refTime":"2024-06-26T03:00:00:Z","depth":0,"parameterNumber":2,"parameterNumberName":"U-component_of_WINDS"},"data":[0,0,0,0,0,0,0,0,0,0,0,0,0,0,0,0,0,0,0,0,0,0,0,0,0,0,0,0,0,0,0,0,0,0,0,0,0,0,0,0,0,0,0,0,0,0,0,0,0,0,0,0,0,0,0,0,0,0,4.7853,4.7854,0,4.7958,4.7959,4.796,4.7924,4.7922,4.792,4.7917,4.8024,4.8029,4.8034,0,0,0,0,0,0,0,0,0,0,0,0,0,4.7625,4.7629,4.7853,4.7855,4.7856,4.7957,4.7959,4.796,4.7925,4.7922,4.7919,4.7916,4.8023,4.8029,4.8035,0,0,0,0,0,0,0,0,0,0,0,0,0,4.7726,4.7631,4.7853,4.785,4.7851,4.7957,4.7959,4.7961,4.7925,4.7922,4.7918,4.7915,4.8021,4.8028,4.8035,4.8151,0,0,4.8058,4.8061,0,0,0,0,0,0,0,0,4.772,4.7735,4.7849,4.7851,4.7852,4.7924,4.7918,4.8024,4.7926,4.7897,4.7917,4.7913,4.7994,4.8003,4.803,4.8156,4.816,4.8059,4.8063,4.8067,4.8069,0,0,0,0,0,0,0,4.7713,4.773,4.7894,4.7851,4.7853,4.7844,4.7855,4.7938,4.7963,4.7899,4.7897,4.791,4.7994,4.8023,4.8033,4.8162,4.8059,4.8065,4.807,4.8073,4.8391,4.8395,0,0,0,0,0,0,4.7706,4.7724,4.7891,4.7898,4.7776,4.7851,4.7863,4.7904,4.7962,4.7968,4.7913,4.7908,4.8012,4.8024,4.8036,4.8178,4.8067,4.8074,4.8078,4.8387,4.8392,4.8396,0,0,0,0,0,0,4.7701,4.7721,4.7887,4.781,4.7831,4.7859,4.7906,4.7908,4.7938,4.7973,4.7977,4.7938,4.801,4.8026,4.8123,4.8181,4.8077,4.8084,4.8382,4.8388,4.8394,4.846,0,0,0,0,0,0,4.7695,4.7719,4.7763,4.7812,4.7835,4.7972,4.7909,4.7913,4.7951,4.7945,4.7998,4.8003,4.8008,4.8112,4.8131,4.8189,4.809,4.8377,4.8385,4.8392,4.8453,4.8468,4.848,0,0,0,0,0,4.7686,4.7776,4.7765,4.7785,4.789,4.7975,4.7989,4.7993,4.7956,4.8,4.8023,4.8001,4.8171,4.8123,4.8143,4.8205,4.8374,4.8383,4.8391,4.8447,4.8465,4.848,0,0,0,0,0,0,4.7733,4.7783,4.7771,4.7879,4.7923,4.7969,4.8025,4.8011,4.8067,4.806,4.8063,4.8075,4.8176,4.82,4.8145,4.8321,4.8267,4.828,4.8302,4.832,4.8333,4.8326,4.8096,0,0,0,0,0,4.7756,4.782,4.786,4.7952,4.7975,4.7997,4.8034,4.8034,4.808,4.8098,4.8128,4.8173,4.8238,4.828,4.834,4.8456,4.8469,4.8509,4.8522,4.8533,4.8545,4.8612,4.8631,4.8425,4.8425,4.8425,0,0,4.7803,4.7839,4.7879,4.7963,4.7997,4.8065,4.8012,4.8085,4.8137,4.8109,4.8204,4.8228,4.8279,4.8387,4.8436,4.841,4.8605,4.8545,4.8553,4.856,4.8623,4.8643,4.866,4.8431,4.843,4.8429,0,0,4.7926,4.7958,4.804,4.8076,4.8129,4.8143,4.8162,4.8211,4.8226,4.8321,4.8303,4.8364,4.8473,4.8512,4.8546,4.8687,4.867,4.8706,4.8778,4.8842,4.8859,4.8873,4.8926,4.8945,4.8718,4.8718,4.8718,0,4.7978,4.808,4.8083,4.8159,4.8198,4.8177,4.8261,4.8296,4.8366,4.8393,4.8363,4.8502,4.8535,4.8654,4.8689,4.8716,4.874,4.87,4.8856,4.8871,4.8884,4.8935,4.8954,4.8722,4.8722,4.8721,4.8721,0,4.8144,4.8215,4.8274,4.8344,4.8389,4.8468,4.8485,4.8531,4.8527,4.8545,4.8644,4.8683,4.8753,4.8781,4.8778,4.8901,4.8883,4.8854,4.88,4.8908,4.8956,4.8975,4.8728,4.8727,4.8725,4.8724,0,0,4.8297,4.837,4.8392,4.8425,4.8483,4.8538,4.8618,4.8687,4.8727,4.8777,4.8845,4.894,4.8915,4.8954,4.8955,4.9011,4.9124,4.8976,4.8978,4.9005,4.9266,4.9288,4.9311,4.9113,4.9117,4.912,4.9262,0,4.8426,4.8567,4.8573,4.8701,4.8769,4.8751,4.8821,4.8865,4.8885,4.8945,4.8966,4.9035,4.8995,4.9019,4.9074,4.9099,4.9177,4.9088,4.9179,4.9182,4.9169,4.9335,4.9359,4.9491,4.9281,4.9284,4.9286,0,4.8595,4.8652,4.8788,4.884,4.8868,4.8931,4.8996,4.9054,4.9104,4.9115,4.9159,4.9153,4.9237,4.9179,4.9296,4.9236,4.9273,4.9291,4.9296,4.9307,4.9242,4.9352,4.9533,4.9554,4.9315,4.9312,4.931,0,4.8698,4.8808,4.8904,4.8932,4.8994,4.9039,4.9067,4.9114,4.9156,4.9214,4.9242,4.9308,4.9344,4.9396,4.9409,4.9365,4.9527,4.9469,4.954,4.954,4.9575,4.9573,4.9768,4.9596,4.9596,4.9595,4.9595,0,4.8843,4.8927,4.8951,4.901,4.9105,4.9112,4.9206,4.9231,4.9274,4.9339,4.9327,4.9388,4.94,4.9465,4.9475,4.9572,4.9588,4.96,4.9602,4.9603,4.9601,4.9628,4.962,4.9601,4.96,4.9599,4.9598,0,4.8973,4.8992,4.9097,4.9148,4.9162,4.923,4.9274,4.9332,4.9351,4.9433,4.9453,4.9483,4.9558,4.9576,4.9665,4.9673,4.9788,4.978,4.9772,4.9772,4.9842,4.9836,5.0062,5.0094,4.9899,4.9901,4.9903,0,4.9065,4.913,4.9189,4.9232,4.9263,4.9331,4.9375,4.9385,4.9431,4.9496,4.9547,4.9621,4.9681,4.9803,4.9833,4.9902,4.9897,4.9972,4.9908,4.9907,4.9902,4.9899,4.9907,4.9984,4.9987,4.9988,4.999,0,4.9228,4.9235,4.9298,4.9367,4.9419,4.9473,4.9524,4.956,4.9578,4.963,4.9708,4.9755,4.9847,4.9922,4.9993,5.0022,5.0011,5.001,5.003,5.0032,5.0025,5.0033,4.9808,5.0005,5.0003,5.0002,5.0001,5.0001,4.9344,4.9403,4.9454,4.9526,4.9566,4.9615,4.9673,4.9699,4.9764,4.9841,4.9843,4.9928,4.998,5.0073,5.0107,5.0175,5.0152,5.0181,5.0189,5.0197,5.0204,5.0013,5.0187,5.0187,5.0187,5.0186,5.0186,0,4.9509,4.9542,4.9608,4.9681,4.9738,4.9721,4.9778,4.9827,4.9903,4.9952,5.0012,5.0103,5.0176,5.0213,5.0286,5.0334,5.033,5.0353,5.035,5.0358,5.0219,5.0195,5.0355,5.0355,5.0355,5.0354,5.0354,5.0354,4.9602,4.97,4.9714,4.9833,4.9865,4.9949,4.9983,5.0029,5.0069,5.0171,5.0232,5.0255,5.0301,5.0377,5.0445,5.0454,5.0482,5.0509,5.0515,5.0385,5.0368,5.0351,5.0329,5.0514,5.0514,5.0649,5.065,5.0651]},{"header":{"parameterUnit":"m.s-1","parameterCategory":1,"la1":30.2991,"la2":30.254,"lo1":-89.0895,"lo2":-89.0444,"dy":0.0017,"dx":0.0017,"nx":28,"ny":28,"refTime":"2024-06-26T03:00:00:Z","depth":0,"parameterNumber":3,"parameterNumberName":"V-component_of_WINDS"},"data":[0,0,0,0,0,0,0,0,0,0,0,0,0,0,0,0,0,0,0,0,0,0,0,0,0,0,0,0,0,0,0,0,0,0,0,0,0,0,0,0,0,0,0,0,0,0,0,0,0,0,0,0,0,0,0,0,0,0,-1.3809,-1.3807,0,-1.3652,-1.365,-1.3648,-1.3603,-1.3604,-1.3605,-1.3606,-1.3437,-1.3432,-1.3427,0,0,0,0,0,0,0,0,0,0,0,0,0,-1.4064,-1.4059,-1.3809,-1.3807,-1.3805,-1.3652,-1.365,-1.3648,-1.3603,-1.3604,-1.3605,-1.3606,-1.3439,-1.3433,-1.3426,0,0,0,0,0,0,0,0,0,0,0,0,0,-1.3934,-1.4058,-1.381,-1.3765,-1.3759,-1.3653,-1.365,-1.3647,-1.3603,-1.3604,-1.3605,-1.3607,-1.3441,-1.3433,-1.3425,-1.335,0,0,-1.3401,-1.3398,0,0,0,0,0,0,0,0,-1.3942,-1.3925,-1.3773,-1.3767,-1.3761,-1.3649,-1.3678,-1.3547,-1.3602,-1.3662,-1.3606,-1.3607,-1.3506,-1.3493,-1.346,-1.3342,-1.3335,-1.34,-1.3396,-1.3392,-1.339,0,0,0,0,0,0,0,-1.3951,-1.3931,-1.3747,-1.3771,-1.3764,-1.375,-1.3733,-1.3653,-1.3578,-1.3657,-1.3653,-1.3636,-1.3503,-1.3468,-1.3456,-1.3333,-1.3401,-1.3394,-1.3389,-1.3386,-1.3145,-1.3143,0,0,0,0,0,0,-1.3968,-1.3939,-1.3752,-1.3742,-1.3857,-1.3744,-1.3726,-1.3683,-1.3579,-1.3565,-1.3635,-1.3634,-1.3481,-1.3465,-1.345,-1.3355,-1.3392,-1.3385,-1.338,-1.3146,-1.3145,-1.3143,0,0,0,0,0,0,-1.3974,-1.3952,-1.3758,-1.384,-1.3814,-1.3739,-1.3692,-1.3679,-1.3645,-1.3562,-1.3548,-1.3613,-1.3481,-1.3461,-1.3376,-1.3348,-1.3381,-1.3374,-1.3148,-1.3146,-1.3144,-1.3164,0,0,0,0,0,0,-1.3982,-1.3954,-1.3927,-1.384,-1.381,-1.3689,-1.369,-1.3675,-1.3632,-1.363,-1.3538,-1.3524,-1.3481,-1.3388,-1.3368,-1.3338,-1.3368,-1.315,-1.3147,-1.3144,-1.3165,-1.3163,-1.316,0,0,0,0,0,-1.3991,-1.3937,-1.3925,-1.3903,-1.3774,-1.3687,-1.367,-1.3623,-1.363,-1.36,-1.3548,-1.3527,-1.3355,-1.338,-1.3357,-1.3324,-1.3152,-1.3148,-1.3145,-1.3167,-1.3163,-1.316,0,0,0,0,0,0,-1.402,-1.3925,-1.3911,-1.3828,-1.3766,-1.368,-1.3641,-1.3621,-1.3554,-1.3555,-1.3497,-1.3476,-1.3395,-1.3351,-1.338,-1.3245,-1.3253,-1.3244,-1.3277,-1.3273,-1.3271,-1.3282,-1.3361,0,0,0,0,0,-1.4017,-1.3957,-1.3876,-1.3811,-1.3781,-1.3717,-1.3677,-1.3647,-1.3579,-1.3552,-1.3493,-1.3427,-1.3358,-1.3313,-1.3245,-1.3159,-1.3138,-1.3125,-1.3123,-1.3121,-1.3114,-1.3065,-1.3058,-1.3131,-1.3131,-1.3131,0,0,-1.401,-1.395,-1.3915,-1.3815,-1.3764,-1.3701,-1.3695,-1.3628,-1.358,-1.3541,-1.3458,-1.3413,-1.3335,-1.3249,-1.3208,-1.321,-1.3089,-1.3116,-1.3116,-1.3109,-1.306,-1.3053,-1.3047,-1.3128,-1.3129,-1.3129,0,0,-1.3964,-1.3914,-1.3854,-1.3803,-1.3727,-1.3685,-1.3671,-1.3587,-1.3556,-1.3473,-1.3442,-1.3383,-1.3266,-1.3211,-1.3168,-1.3104,-1.3082,-1.3083,-1.3068,-1.3021,-1.3016,-1.301,-1.2986,-1.2978,-1.3077,-1.3077,-1.3077,0,-1.3964,-1.387,-1.3825,-1.376,-1.3716,-1.3681,-1.3619,-1.3571,-1.3475,-1.3445,-1.3449,-1.3301,-1.3246,-1.3147,-1.3132,-1.3098,-1.3078,-1.3092,-1.3021,-1.3015,-1.3009,-1.2985,-1.2977,-1.3077,-1.3077,-1.3077,-1.3077,0,-1.3873,-1.3809,-1.3769,-1.368,-1.3632,-1.3569,-1.3512,-1.3468,-1.3442,-1.3399,-1.3313,-1.3247,-1.3165,-1.3139,-1.3112,-1.3036,-1.3039,-1.3033,-1.3038,-1.3003,-1.298,-1.2971,-1.3078,-1.3078,-1.3078,-1.3077,0,0,-1.3839,-1.3729,-1.3714,-1.3674,-1.3588,-1.3536,-1.3471,-1.3393,-1.3356,-1.3291,-1.3234,-1.3136,-1.313,-1.3081,-1.3048,-1.3007,-1.2959,-1.3004,-1.3002,-1.2997,-1.287,-1.2875,-1.2866,-1.2945,-1.2943,-1.2942,-1.2877,0,-1.3782,-1.3667,-1.3625,-1.3529,-1.3468,-1.3435,-1.3378,-1.3318,-1.3276,-1.3217,-1.3169,-1.3101,-1.3098,-1.3069,-1.3027,-1.2974,-1.2932,-1.2978,-1.2889,-1.2886,-1.2909,-1.2854,-1.2858,-1.28,-1.2867,-1.2866,-1.2865,0,-1.37,-1.3637,-1.3537,-1.3459,-1.3431,-1.3381,-1.3307,-1.3251,-1.3182,-1.3154,-1.3101,-1.3071,-1.2999,-1.3011,-1.2911,-1.2943,-1.2904,-1.2873,-1.2869,-1.2858,-1.2872,-1.284,-1.278,-1.2771,-1.285,-1.2851,-1.2852,0,-1.3685,-1.3575,-1.3501,-1.3467,-1.3374,-1.334,-1.3299,-1.3232,-1.3188,-1.3122,-1.3093,-1.3018,-1.2977,-1.292,-1.287,-1.2883,-1.2774,-1.2781,-1.2747,-1.2748,-1.2724,-1.2726,-1.2657,-1.2701,-1.2701,-1.2701,-1.2702,0,-1.3624,-1.3564,-1.3493,-1.3447,-1.3378,-1.3329,-1.3261,-1.3218,-1.3158,-1.3102,-1.3067,-1.3015,-1.2952,-1.2891,-1.2851,-1.2774,-1.2755,-1.273,-1.2719,-1.2732,-1.2735,-1.2704,-1.2707,-1.2699,-1.27,-1.27,-1.27,0,-1.3595,-1.3545,-1.3462,-1.3382,-1.3361,-1.3313,-1.3243,-1.3196,-1.3154,-1.3083,-1.3064,-1.2996,-1.2922,-1.2867,-1.2771,-1.2744,-1.2661,-1.2651,-1.2685,-1.268,-1.2648,-1.2652,-1.2556,-1.254,-1.2597,-1.2596,-1.2596,0,-1.3559,-1.3512,-1.3428,-1.339,-1.335,-1.3287,-1.3243,-1.3193,-1.3148,-1.3067,-1.3029,-1.2954,-1.2891,-1.2774,-1.2715,-1.2641,-1.2628,-1.26,-1.2616,-1.2631,-1.2626,-1.2629,-1.2624,-1.2597,-1.2596,-1.2596,-1.2596,0,-1.3501,-1.3479,-1.3418,-1.3349,-1.3298,-1.324,-1.3181,-1.3151,-1.309,-1.3041,-1.2966,-1.2918,-1.2821,-1.2746,-1.2666,-1.2622,-1.2598,-1.2592,-1.2579,-1.2591,-1.2613,-1.26,-1.2678,-1.2593,-1.2594,-1.2594,-1.2594,-1.2594,-1.3466,-1.3423,-1.3358,-1.3291,-1.3242,-1.3189,-1.3141,-1.3094,-1.3032,-1.2951,-1.2925,-1.2848,-1.2779,-1.267,-1.2625,-1.2563,-1.2562,-1.2545,-1.254,-1.2537,-1.2537,-1.2624,-1.2548,-1.2548,-1.2548,-1.2548,-1.2548,0,-1.3405,-1.3362,-1.3302,-1.3222,-1.3169,-1.3155,-1.309,-1.3045,-1.2979,-1.2919,-1.2858,-1.2772,-1.27,-1.2636,-1.256,-1.2522,-1.2509,-1.2504,-1.2505,-1.2495,-1.2542,-1.256,-1.2515,-1.2515,-1.2515,-1.2515,-1.2515,-1.2515,-1.3368,-1.3294,-1.3265,-1.3166,-1.3122,-1.3049,-1.3012,-1.2962,-1.2914,-1.282,-1.2761,-1.2721,-1.2658,-1.2578,-1.251,-1.2493,-1.2466,-1.2463,-1.2443,-1.2488,-1.2492,-1.2495,-1.2512,-1.2458,-1.2458,-1.24,-1.24,-1.24]}]]